Wind_Speed
3 4 4 4 1 4 3 4 6 6 6 6 8 8 9 9 9 10 10 11 10 11 12 12 12 13 13 13 13 14 14 14 14 14 14 13 13 13 13 13 14 14 15 15 16 16 17 17 17
4 5 5 4 3 4 3 4 6 6 7 7 8 9 10 11 11 12 12 13 13 14 15 15 16 16 15 15 15 16 17 17 17 18 17 16 16 15 15 14 14 14 15 15 15 15 16 16 17
5 6 5 6 6 4 5 6 7 8 9 10 10 10 11 13 14 15 16 17 18 18 18 18 18 19 19 19 19 19 20 20 19 20 21 20 19 18 17 16 15 15 15 15 15 15 15 16 16
5 6 7 8 9 6 7 8 10 10 12 12 12 13 14 15 17 18 19 20 21 21 21 21 22 22 23 22 22 22 23 23 22 22 23 23 23 22 20 19 18 17 16 16 15 15 15 15 15
6 8 10 10 11 10 10 10 11 11 13 14 15 16 17 18 19 20 21 22 23 24 25 25 25 25 25 26 26 26 26 26 25 25 25 25 26 26 25 23 21 20 18 17 17 16 15 14 14
9 10 11 12 13 13 13 13 13 14 14 16 17 18 18 19 20 22 23 24 25 26 26 26 26 27 27 27 27 28 28 29 28 28 28 28 27 29 28 27 25 23 21 20 19 17 16 15 14
11 12 14 15 15 14 13 13 14 15 17 18 19 19 20 21 22 23 24 25 26 28 28 28 28 28 28 28 28 29 30 30 31 31 30 30 30 29 30 29 28 26 24 22 21 19 17 16 14
13 14 15 16 15 14 13 14 15 16 17 19 20 20 21 21 22 23 24 25 27 28 28 28 28 28 29 29 29 29 30 31 32 33 33 32 32 32 31 31 30 29 27 26 24 22 20 18 16
14 15 16 16 16 15 15 15 16 17 18 19 20 21 21 22 22 23 24 25 26 26 25 26 25 26 26 27 27 28 29 30 32 33 34 34 32 31 32 32 31 31 30 29 27 25 22 20 18
15 17 17 17 16 15 16 17 18 17 18 19 20 20 21 22 22 23 22 22 22 22 23 23 23 23 23 23 24 25 27 28 30 31 33 34 34 33 31 32 33 32 32 32 30 28 25 23 21
16 16 17 15 14 13 14 17 18 18 19 19 20 21 21 21 21 21 21 20 20 21 21 21 21 22 22 22 22 23 24 25 27 28 29 31 33 33 33 31 31 32 32 32 31 29 27 25 24
18 17 17 14 13 12 13 16 17 18 19 20 20 21 21 21 21 21 20 20 20 20 20 20 20 20 20 20 20 20 21 22 23 25 26 28 30 31 32 33 32 30 31 30 31 30 29 28 26
19 18 16 13 11 11 12 14 16 17 18 19 19 20 20 20 20 19 19 19 19 19 19 19 20 20 20 20 19 19 19 19 20 22 23 25 26 29 30 31 32 31 30 30 31 31 30 29 27
18 16 15 12 11 11 12 14 15 16 17 17 17 17 18 17 17 18 18 18 19 19 18 18 19 19 19 19 18 18 18 18 18 18 19 21 23 25 27 29 30 30 30 30 30 30 31 31 29
19 17 15 13 11 11 13 12 13 15 15 15 15 15 15 15 16 16 17 18 19 19 19 19 19 19 19 18 18 17 16 15 15 15 16 18 19 21 24 26 27 28 29 30 30 30 30 32 32
17 14 13 12 11 11 11 11 12 13 13 13 13 13 14 14 15 16 17 18 19 19 20 19 19 19 18 17 16 15 14 13 13 13 14 15 17 18 20 22 24 26 27 29 30 31 31 31 33
15 15 14 13 12 11 11 11 11 11 11 11 12 12 13 14 15 16 17 18 19 20 20 19 19 18 17 16 16 14 13 12 11 10 11 11 13 15 17 19 21 23 25 26 27 29 30 32 33
15 14 13 13 12 11 10 10 9 10 10 10 10 11 12 13 14 15 16 18 19 19 19 19 19 19 18 17 16 15 13 11 10 9 8 9 11 12 14 16 18 21 23 24 25 27 28 30 33
14 14 14 13 13 12 11 9 9 9 8 8 9 10 11 12 13 14 16 17 18 19 19 20 20 20 19 19 18 16 15 13 11 9 7 8 9 10 12 14 15 17 19 22 24 26 27 29 30
13 13 13 13 12 12 11 9 8 7 6 6 8 10 11 11 12 13 15 16 17 18 19 20 20 21 20 20 19 18 17 15 13 10 8 6 6 7 9 11 12 15 17 19 22 24 27 28 29
11 11 12 13 12 11 11 9 6 4 3 5 7 9 10 10 11 13 14 15 16 17 18 19 20 21 21 21 20 19 18 17 15 13 11 9 7 7 7 8 9 12 15 17 19 22 24 27 29
10 11 12 12 11 10 10 8 5 2 1 4 6 7 8 9 10 12 13 14 16 17 18 19 20 21 21 21 21 20 20 19 17 16 13 11 9 8 7 7 8 9 11 14 17 20 22 24 27
11 11 12 12 11 9 8 6 3 2 2 3 5 6 7 8 9 11 12 13 15 16 17 18 19 20 21 21 21 21 21 20 19 17 16 14 12 10 9 7 7 8 9 11 14 16 19 22 25
12 12 12 12 10 9 7 4 4 4 3 3 4 5 6 7 8 9 11 12 14 15 16 18 19 19 20 20 20 20 20 20 19 19 18 16 15 13 11 10 8 7 8 9 11 14 17 20 23
12 12 12 12 11 9 7 6 5 5 4 3 3 4 5 5 7 8 9 11 12 14 15 17 18 19 19 19 20 20 20 20 19 19 19 18 16 15 14 12 10 9 8 9 11 13 15 18 21
12 11 12 12 12 11 9 7 6 5 4 3 3 3 3 4 5 7 8 10 12 13 15 16 17 18 19 19 19 19 20 20 20 19 19 19 18 17 15 14 13 11 10 10 11 12 14 16 19
11 11 10 12 13 12 10 8 6 6 4 3 2 1 2 3 4 6 7 9 11 12 14 15 16 17 18 19 20 20 20 20 20 20 20 19 19 18 17 16 15 13 12 12 12 13 14 16 18
10 10 10 11 12 12 10 9 8 7 5 4 2 1 1 2 3 5 7 8 10 12 14 15 16 17 18 19 20 20 20 20 20 20 20 20 20 19 18 18 17 15 14 14 14 13 14 15 17
10 10 11 11 12 12 10 9 8 7 6 4 3 2 1 1 2 4 6 8 10 12 14 15 16 17 18 19 20 20 21 20 20 20 21 21 20 20 19 19 18 18 17 16 15 14 14 15 16
10 11 11 11 11 11 9 8 8 7 7 6 4 3 1 1 2 4 6 8 10 12 14 15 17 18 19 20 20 20 20 20 20 21 21 21 21 21 20 19 19 19 18 18 17 15 15 15 15
Wind_Direction
344 334 317 306 8 72 67 61 47 36 15 355 347 341 338 335 334 327 321 316 313 315 317 313 309 303 299 294 285 279 277 276 272 270 269 268 268 267 266 265 263 259 256 255 255 254 254 255 255
315 320 315 319 22 39 40 21 16 9 349 342 338 332 325 322 320 317 312 308 306 306 306 302 299 297 293 289 283 278 276 274 271 265 264 263 262 262 263 262 263 260 257 256 255 255 254 254 255
302 317 323 315 341 359 358 352 350 349 340 334 328 324 319 315 312 310 308 305 301 300 299 295 291 290 287 283 278 275 273 271 269 265 261 259 259 259 259 259 260 260 258 256 255 254 254 254 255
294 299 301 307 320 324 338 338 334 337 333 327 320 317 316 312 309 306 304 301 299 297 294 291 287 285 282 278 274 271 270 269 267 266 261 258 257 256 256 257 256 255 256 255 254 253 254 254 255
273 283 293 302 310 318 321 325 328 330 328 323 319 316 314 310 308 305 303 300 297 295 293 290 288 284 280 275 271 268 266 265 265 264 263 259 256 254 253 254 254 253 253 253 252 252 252 252 253
262 273 283 296 304 307 312 318 322 323 324 320 318 316 313 310 307 305 303 300 298 296 294 291 288 286 282 277 272 269 265 263 262 261 262 259 257 254 252 250 250 251 250 250 250 251 250 250 251
266 274 280 289 298 300 307 316 323 323 322 320 319 316 314 311 309 306 303 300 298 296 294 292 289 286 283 279 274 270 266 263 260 259 260 259 257 255 251 248 247 247 248 247 247 248 247 247 248
268 274 277 284 291 297 306 316 322 322 321 320 319 317 316 314 312 309 307 304 302 299 297 294 291 288 285 281 276 272 267 264 261 259 258 258 256 254 250 247 246 245 245 245 243 245 244 243 243
269 272 274 279 286 294 302 312 319 321 321 321 319 318 318 317 315 312 310 308 306 304 301 299 297 294 289 284 280 275 270 266 263 260 257 257 256 255 249 247 247 246 244 243 241 240 240 239 239
266 270 271 271 279 292 302 310 317 323 322 321 321 321 320 319 317 315 315 314 312 310 307 306 304 302 298 292 286 281 275 270 266 262 258 256 254 253 250 247 246 246 245 245 242 239 238 238 236
263 267 277 276 279 292 308 313 319 323 322 323 325 325 325 325 323 323 323 322 321 318 315 313 311 309 305 300 294 288 281 274 267 263 259 255 253 251 250 248 246 246 246 245 239 238 236 235 234
257 267 275 277 288 298 311 316 321 322 324 326 328 330 332 331 330 331 332 331 329 326 322 318 314 312 310 306 302 296 288 279 271 264 259 255 251 249 249 247 246 245 245 242 238 238 236 235 232
263 270 280 280 293 300 307 315 321 324 326 328 331 334 335 335 335 336 336 335 333 330 327 323 320 317 314 311 307 301 295 288 278 268 260 256 251 249 248 247 247 245 243 240 238 238 234 233 231
262 271 284 296 305 304 314 319 320 323 324 328 335 339 339 340 341 342 343 342 339 338 335 331 328 325 321 317 312 307 300 291 283 274 265 259 253 249 247 245 244 243 243 242 241 237 235 233 232
260 272 285 288 299 307 311 318 320 322 324 332 341 345 347 347 349 351 350 348 346 345 343 340 336 332 329 325 320 315 308 297 286 278 270 262 255 249 246 244 243 242 242 241 240 238 236 234 231
264 278 283 286 303 308 315 320 323 324 327 338 349 353 356 358 358 357 355 354 354 353 351 347 344 342 340 337 333 327 319 307 296 285 276 266 257 251 247 245 242 239 239 238 238 238 236 234 231
269 279 285 289 295 302 312 316 321 326 334 346 356 3 4 2 0 360 0 0 1 0 359 357 356 354 352 349 347 343 336 326 311 295 284 271 259 254 250 245 241 239 237 237 237 237 235 232 230
264 271 280 288 297 305 310 315 324 332 341 352 4 10 8 5 4 6 8 8 9 9 9 8 6 4 2 360 358 356 353 347 336 318 299 282 268 259 253 249 245 241 238 237 235 235 235 233 233
261 272 281 287 297 304 308 319 329 333 343 358 12 19 17 13 12 13 14 14 15 15 15 15 14 13 12 12 10 8 6 2 353 340 319 301 284 270 260 254 249 243 238 236 234 234 235 234 234
256 270 281 288 298 303 308 318 328 328 344 7 24 28 24 19 18 19 19 20 20 21 21 21 21 21 21 21 20 19 17 13 9 3 352 334 311 287 269 260 252 246 242 239 237 236 235 236 235
257 275 285 288 292 298 301 309 316 321 353 27 35 33 29 25 24 25 25 25 25 25 24 24 25 25 25 25 24 24 22 20 19 16 10 360 343 324 299 278 263 253 247 243 241 238 237 237 238
258 273 285 289 291 291 290 296 299 296 53 49 44 38 33 31 30 30 29 29 28 26 25 25 25 25 25 24 24 24 24 23 22 19 15 10 1 350 330 302 284 270 258 250 245 243 240 238 239
261 271 278 283 282 276 277 276 247 198 127 74 51 42 37 34 33 32 31 29 27 25 24 24 23 23 24 24 23 23 22 22 21 20 19 15 8 1 351 335 310 290 271 259 252 248 243 240 239
259 266 272 275 268 261 261 237 190 169 141 99 68 49 40 34 32 31 29 26 24 23 22 21 21 22 22 22 21 21 21 20 19 19 17 15 12 7 2 355 341 318 293 273 261 254 249 245 242
258 262 265 265 254 250 247 209 170 160 146 117 86 58 43 34 29 27 24 22 20 19 18 18 18 18 18 19 18 18 17 17 16 15 15 14 12 9 4 358 352 338 319 296 278 266 258 253 248
255 257 259 257 256 251 236 200 177 167 150 127 99 64 44 35 25 20 19 16 14 14 14 14 13 12 13 13 13 13 13 13 14 13 11 11 10 9 5 360 353 344 331 315 297 282 270 261 254
250 250 252 251 252 247 228 199 181 178 164 143 120 74 39 27 17 14 11 10 9 9 9 8 8 7 7 8 8 8 8 9 10 9 9 8 7 6 4 1 356 348 337 325 310 295 283 274 263
245 245 242 241 246 244 227 205 193 190 179 168 162 156 27 11 12 9 7 6 5 3 3 2 1 1 1 2 2 3 3 4 6 6 6 6 5 4 2 1 358 352 344 335 324 310 296 285 275
237 239 238 240 240 238 228 202 194 188 188 188 190 192 199 347 360 0 359 359 358 357 356 355 355 355 356 356 357 358 359 0 1 2 3 4 3 2 0 359 357 353 348 342 336 326 312 299 287
241 237 233 235 238 236 227 206 202 193 192 191 190 192 195 271 337 346 348 349 349 350 350 350 350 350 350 351 353 354 355 357 359 359 0 1 1 1 0 358 356 355 352 348 344 336 328 316 303
Height
5913 5911 5908 5907 5907 5907 5907 5907 5907 5907 5906 5905 5903 5903 5902 5901 5901 5902 5898 5894 5892 5891 5890 5889 5888 5888 5886 5885 5885 5884 5884 5883 5883 5883 5882 5882 5882 5882 5882 5883 5883 5883 5883 5883 5883 5883 5884 5884 5884
5913 5910 5908 5906 5906 5906 5907 5907 5907 5907 5906 5904 5903 5902 5901 5900 5899 5897 5895 5893 5890 5889 5888 5887 5886 5885 5884 5883 5882 5881 5881 5880 5880 5880 5880 5879 5879 5880 5880 5880 5880 5881 5881 5881 5881 5881 5881 5882 5882
5912 5910 5908 5906 5905 5907 5907 5906 5906 5905 5904 5903 5902 5901 5899 5898 5897 5895 5893 5891 5888 5887 5885 5884 5883 5881 5880 5879 5879 5878 5877 5876 5876 5876 5876 5876 5876 5876 5877 5877 5878 5878 5878 5879 5879 5879 5879 5879 5880
5912 5910 5908 5907 5906 5906 5906 5906 5905 5904 5903 5902 5900 5899 5897 5895 5894 5892 5890 5888 5885 5883 5882 5880 5879 5877 5876 5875 5874 5873 5873 5872 5871 5871 5871 5872 5872 5872 5873 5873 5874 5875 5876 5876 5876 5877 5877 5877 5877
5911 5909 5907 5906 5906 5906 5905 5904 5904 5903 5901 5900 5898 5896 5894 5892 5890 5888 5886 5884 5881 5879 5877 5875 5873 5872 5870 5869 5868 5868 5867 5867 5866 5866 5866 5866 5867 5868 5868 5869 5870 5871 5872 5873 5874 5874 5875 5875 5875
5909 5908 5907 5905 5904 5904 5904 5902 5901 5900 5899 5897 5896 5893 5891 5889 5886 5884 5881 5879 5876 5874 5871 5869 5867 5866 5864 5863 5862 5861 5861 5860 5860 5860 5860 5861 5861 5862 5863 5864 5866 5867 5868 5869 5870 5871 5872 5873 5873
5908 5907 5905 5904 5903 5903 5902 5901 5899 5897 5896 5894 5892 5890 5887 5885 5882 5879 5877 5874 5871 5868 5866 5863 5861 5859 5858 5856 5855 5854 5854 5853 5853 5853 5854 5854 5855 5856 5857 5858 5860 5862 5864 5865 5867 5868 5869 5870 5871
5904 5905 5903 5902 5901 5901 5900 5898 5897 5895 5893 5891 5889 5886 5884 5881 5878 5874 5871 5868 5865 5862 5859 5857 5854 5852 5850 5849 5847 5846 5846 5845 5845 5846 5846 5847 5848 5849 5850 5852 5854 5856 5859 5861 5862 5864 5866 5867 5868
5902 5902 5900 5899 5899 5898 5897 5896 5895 5892 5890 5888 5885 5883 5880 5877 5873 5870 5867 5863 5860 5857 5854 5851 5848 5846 5844 5842 5840 5839 5838 5838 5838 5838 5839 5840 5841 5842 5844 5846 5848 5850 5853 5855 5857 5859 5861 5863 5865
5899 5898 5896 5896 5896 5895 5894 5893 5891 5889 5887 5884 5882 5879 5876 5873 5869 5866 5863 5859 5856 5852 5849 5846 5843 5840 5838 5835 5833 5832 5831 5830 5830 5830 5831 5832 5833 5835 5837 5839 5842 5844 5846 5849 5852 5854 5857 5859 5861
5895 5894 5893 5892 5892 5891 5890 5889 5888 5886 5884 5881 5878 5875 5872 5868 5865 5862 5858 5855 5852 5848 5845 5841 5838 5835 5832 5830 5827 5825 5824 5823 5822 5822 5823 5824 5826 5828 5830 5832 5835 5837 5840 5842 5845 5848 5851 5854 5857
5892 5891 5890 5889 5888 5887 5887 5886 5885 5882 5880 5877 5874 5871 5868 5864 5861 5858 5854 5851 5848 5844 5841 5838 5834 5831 5828 5825 5822 5820 5817 5816 5815 5815 5815 5816 5818 5820 5822 5825 5827 5830 5833 5836 5839 5842 5846 5849 5852
5888 5887 5886 5886 5885 5884 5884 5883 5882 5879 5877 5874 5871 5868 5865 5862 5858 5855 5852 5848 5845 5841 5838 5834 5830 5827 5823 5820 5817 5815 5812 5810 5809 5808 5809 5810 5811 5813 5815 5817 5820 5823 5826 5830 5833 5837 5840 5843 5847
5885 5884 5883 5883 5883 5883 5882 5881 5880 5877 5875 5872 5869 5866 5863 5860 5857 5853 5850 5846 5842 5839 5835 5831 5827 5823 5820 5816 5813 5810 5807 5805 5803 5803 5803 5804 5805 5806 5808 5810 5813 5816 5820 5823 5827 5830 5834 5838 5841
5881 5881 5882 5882 5881 5880 5880 5880 5878 5875 5872 5870 5867 5864 5862 5858 5855 5852 5848 5844 5841 5837 5832 5828 5824 5820 5816 5813 5809 5806 5803 5801 5799 5798 5798 5799 5799 5801 5802 5804 5807 5810 5813 5817 5820 5823 5827 5831 5835
5877 5878 5879 5879 5879 5878 5879 5877 5875 5872 5869 5867 5865 5862 5860 5857 5853 5850 5847 5843 5839 5835 5830 5826 5822 5818 5814 5810 5806 5803 5800 5797 5796 5795 5794 5794 5795 5796 5797 5799 5801 5804 5807 5810 5813 5817 5821 5825 5829
5875 5876 5876 5877 5876 5876 5875 5874 5872 5869 5867 5864 5863 5861 5858 5856 5853 5849 5846 5842 5838 5833 5829 5825 5821 5816 5812 5808 5804 5801 5797 5795 5793 5791 5791 5791 5791 5792 5793 5794 5796 5798 5801 5804 5807 5811 5814 5818 5822
5873 5873 5874 5874 5874 5873 5872 5871 5869 5867 5864 5862 5861 5859 5857 5855 5852 5849 5845 5841 5837 5833 5829 5825 5820 5816 5812 5807 5803 5800 5796 5794 5791 5789 5788 5788 5788 5788 5789 5790 5792 5793 5796 5798 5801 5805 5808 5811 5815
5870 5871 5871 5871 5871 5870 5868 5867 5866 5864 5862 5861 5859 5858 5856 5854 5851 5848 5845 5841 5837 5833 5830 5825 5821 5816 5811 5807 5803 5799 5796 5793 5790 5788 5787 5786 5785 5786 5786 5787 5788 5789 5791 5793 5796 5799 5802 5805 5808
5868 5868 5868 5868 5867 5866 5865 5864 5863 5862 5860 5859 5858 5857 5855 5854 5851 5848 5845 5842 5838 5834 5830 5826 5822 5817 5812 5808 5804 5800 5796 5793 5790 5788 5786 5785 5784 5783 5783 5783 5784 5785 5787 5789 5791 5793 5795 5798 5801
5865 5866 5865 5864 5864 5863 5863 5863 5862 5861 5859 5858 5857 5856 5855 5853 5851 5849 5846 5842 5839 5835 5831 5827 5823 5818 5814 5809 5805 5801 5798 5794 5791 5788 5786 5784 5782 5781 5781 5780 5781 5782 5783 5784 5786 5788 5790 5792 5795
5862 5863 5862 5861 5861 5861 5861 5861 5860 5859 5858 5857 5856 5856 5855 5853 5851 5849 5846 5843 5840 5836 5832 5828 5824 5820 5815 5811 5807 5803 5799 5795 5792 5789 5786 5784 5782 5780 5779 5778 5778 5778 5779 5780 5781 5783 5784 5787 5789
5859 5860 5860 5859 5859 5859 5859 5859 5859 5858 5857 5857 5856 5856 5855 5853 5851 5849 5846 5844 5841 5837 5834 5830 5826 5821 5817 5813 5809 5804 5800 5797 5793 5790 5787 5784 5782 5780 5778 5777 5776 5776 5776 5776 5777 5778 5779 5781 5783
5857 5857 5857 5857 5857 5857 5857 5857 5857 5857 5856 5856 5856 5855 5854 5853 5851 5849 5847 5844 5841 5838 5835 5831 5827 5823 5819 5814 5810 5806 5802 5798 5795 5791 5788 5785 5782 5779 5777 5776 5774 5773 5773 5773 5773 5773 5774 5775 5777
5854 5855 5855 5855 5854 5855 5855 5855 5856 5855 5855 5855 5855 5855 5854 5853 5851 5850 5847 5845 5842 5839 5836 5832 5828 5824 5820 5816 5812 5808 5804 5800 5796 5792 5789 5785 5782 5779 5777 5774 5773 5771 5770 5769 5769 5769 5769 5770 5771
5851 5852 5853 5853 5853 5853 5853 5852 5854 5853 5854 5854 5854 5853 5853 5852 5851 5850 5847 5845 5842 5839 5836 5832 5829 5825 5821 5817 5813 5809 5805 5801 5797 5793 5790 5786 5783 5779 5776 5774 5772 5769 5768 5766 5765 5765 5764 5764 5765
5848 5848 5850 5850 5850 5850 5850 5851 5851 5851 5852 5852 5852 5852 5852 5852 5851 5849 5847 5845 5842 5839 5836 5833 5829 5825 5822 5818 5814 5810 5806 5802 5798 5794 5790 5786 5783 5779 5776 5773 5770 5768 5766 5764 5762 5760 5760 5759 5759
5845 5846 5846 5847 5847 5847 5848 5848 5849 5849 5850 5851 5851 5851 5851 5851 5850 5849 5847 5845 5842 5839 5836 5833 5829 5826 5822 5818 5814 5810 5806 5802 5798 5795 5791 5787 5783 5779 5776 5772 5769 5766 5763 5761 5758 5756 5755 5754 5753
5843 5843 5843 5844 5845 5845 5846 5850 5849 5849 5849 5850 5850 5850 5850 5850 5849 5848 5846 5844 5842 5839 5836 5833 5829 5826 5822 5818 5814 5810 5806 5802 5798 5795 5791 5787 5783 5779 5775 5772 5768 5764 5761 5758 5755 5752 5750 5748 5747
5840 5840 5841 5842 5843 5843 5844 5849 5847 5848 5848 5848 5849 5849 5849 5849 5848 5847 5845 5843 5841 5838 5835 5832 5829 5825 5821 5818 5814 5810 5806 5802 5798 5794 5791 5787 5783 5779 5775 5771 5767 5763 5759 5755 5752 5748 5746 5743 5741